VIR46G EGLL-KBOS

Flight info

Callsign VIR46G
Flight time N/A
Altitude 38000
Route CPT DCT DIDZA L9 OKSAW DCT BIBPE DCT BUCGO DCT FELCA DCT NICXI DCT BAKUR DCT DOGAL/M080F390 DCT 54N020W 54N030W 5330N04000W 5230N05000W DCT SAXAN/N0467F400 N550A TOPPS DCT AJJAY OOSHN5
Aircraft A343/H-SDE2E3FGHIJ4J5M1RWXY/LB1D1

Departure

Time 2026-05-03 20:28
Airport London Heathrow Airport (EGLL)

Arrival

Time N/A
Airport Boston Logan International Airport (KBOS)
Time Latitude Longitude Altitude Speed Heading
2026-05-03 20:15 51.47169 -0.46347 94 ft 15 kts 326°
2026-05-03 20:15 51.47246 -0.46453 95 ft 14 kts 300°
2026-05-03 20:15 51.47243 -0.46593 91 ft 13 kts 265°
2026-05-03 20:15 51.47232 -0.46714 92 ft 4 kts 227°
2026-05-03 20:16 51.47204 -0.46720 93 ft 6 kts 182°
2026-05-03 20:16 51.47147 -0.46723 89 ft 10 kts 180°
2026-05-03 20:16 51.47073 -0.46723 90 ft 11 kts 179°
2026-05-03 20:16 51.47005 -0.46676 94 ft 11 kts 143°
2026-05-03 20:17 51.46943 -0.46607 95 ft 11 kts 147°
2026-05-03 20:17 51.46873 -0.46532 97 ft 13 kts 146°
2026-05-03 20:17 51.46788 -0.46440 98 ft 15 kts 149°
2026-05-03 20:17 51.46699 -0.46423 99 ft 12 kts 181°
2026-05-03 20:18 51.46660 -0.46341 100 ft 11 kts 93°
2026-05-03 20:18 51.46660 -0.46185 97 ft 17 kts 89°
2026-05-03 20:18 51.46662 -0.45980 91 ft 20 kts 90°
2026-05-03 20:18 51.46662 -0.45752 90 ft 21 kts 89°
2026-05-03 20:19 51.46663 -0.45517 91 ft 21 kts 89°
2026-05-03 20:19 51.46664 -0.45291 94 ft 19 kts 90°
2026-05-03 20:19 51.46664 -0.45068 97 ft 21 kts 90°
2026-05-03 20:19 51.46666 -0.44836 99 ft 20 kts 89°
2026-05-03 20:20 51.46667 -0.44605 97 ft 21 kts 90°
2026-05-03 20:20 51.46667 -0.44377 94 ft 14 kts 90°
2026-05-03 20:20 51.46667 -0.44284 93 ft 6 kts 89°
2026-05-03 20:20 51.46668 -0.44247 92 ft 0 kts 89°
2026-05-03 20:21 51.46668 -0.44246 92 ft 0 kts 89°
2026-05-03 20:24 51.46668 -0.44215 91 ft 6 kts 89°
2026-05-03 20:25 51.46669 -0.44106 92 ft 12 kts 89°
2026-05-03 20:25 51.46670 -0.43950 91 ft 15 kts 90°
2026-05-03 20:25 51.46669 -0.43778 91 ft 15 kts 89°
2026-05-03 20:25 51.46667 -0.43644 93 ft 7 kts 104°
2026-05-03 20:26 51.46648 -0.43612 96 ft 2 kts 149°
2026-05-03 20:26 51.46636 -0.43606 95 ft 3 kts 163°
2026-05-03 20:26 51.46590 -0.43601 95 ft 10 kts 174°
2026-05-03 20:26 51.46522 -0.43575 97 ft 9 kts 165°
2026-05-03 20:27 51.46496 -0.43603 96 ft 2 kts 257°
2026-05-03 20:27 51.46496 -0.43617 96 ft 0 kts 267°
2026-05-03 20:27 51.46495 -0.43651 93 ft 15 kts 267°
2026-05-03 20:27 51.46490 -0.44119 91 ft 68 kts 270°
2026-05-03 20:28 51.46489 -0.45111 96 ft 111 kts 270°
2026-05-03 20:28 51.46483 -0.46562 97 ft 148 kts 270°
2026-05-03 20:28 51.46477 -0.48324 364 ft 160 kts 269°
2026-05-03 20:28 51.46457 -0.50111 855 ft 160 kts 267°
2026-05-03 20:29 51.46403 -0.51928 1316 ft 166 kts 266°
2026-05-03 20:29 51.46355 -0.53892 1536 ft 185 kts 268°
2026-05-03 20:29 51.46304 -0.56045 1773 ft 201 kts 268°
2026-05-03 20:29 51.46255 -0.58386 1963 ft 221 kts 268°
2026-05-03 20:30 51.46205 -0.60964 2265 ft 239 kts 268°
2026-05-03 20:30 51.46083 -0.63675 2713 ft 249 kts 264°
2026-05-03 20:30 51.45908 -0.66475 3245 ft 255 kts 264°
2026-05-03 20:30 51.45738 -0.69337 3840 ft 259 kts 264°
2026-05-03 20:31 51.45583 -0.72238 4466 ft 262 kts 265°
2026-05-03 20:31 51.45437 -0.75171 5079 ft 265 kts 264°
2026-05-03 20:31 51.45332 -0.78132 5669 ft 268 kts 268°
2026-05-03 20:31 51.45308 -0.81123 5964 ft 269 kts 269°
2026-05-03 20:32 51.45294 -0.84133 6034 ft 269 kts 268°
2026-05-03 20:32 51.45292 -0.87143 6332 ft 272 kts 271°
2026-05-03 20:32 51.45528 -0.90173 6881 ft 274 kts 279°
2026-05-03 20:32 51.45867 -0.93138 7519 ft 275 kts 279°
2026-05-03 20:33 51.46226 -0.96202 8117 ft 276 kts 279°
2026-05-03 20:33 51.46575 -0.99205 8696 ft 279 kts 279°
2026-05-03 20:33 51.46931 -1.02280 9291 ft 281 kts 279°
2026-05-03 20:33 51.47290 -1.05378 9872 ft 283 kts 278°
2026-05-03 20:34 51.47646 -1.08527 10232 ft 293 kts 278°
2026-05-03 20:34 51.48015 -1.11812 10470 ft 306 kts 278°
2026-05-03 20:34 51.48402 -1.15255 10715 ft 319 kts 278°
2026-05-03 20:34 51.48827 -1.18816 10941 ft 332 kts 281°
2026-05-03 20:35 51.49706 -1.22312 11243 ft 345 kts 301°
2026-05-03 20:35 51.54528 -1.30561 12473 ft 360 kts 316°
2026-05-03 20:35 51.61579 -1.42182 14317 ft 366 kts 300°